User: anonymous   Login
Location: Unspecified
(0.0000°N, 0.0000°E)
Time: 01:08:43
(UTC+00:00)
Language:

NOSS 2-2 (C) - Orbit

View from above orbital plane
View from above orbital plane
View from above satellite
View from above satellite

Ground track
Ground track

The orbit data is extracted from the following two-line orbital elements,

1 21799U 91076C   17288.73959963 0.00000250  00000-0  75510-4 0    00
2 21799  63.3500 148.6107 0762000  26.3946 333.6054 13.41131692    04
Epoch (UTC): 15 October 2017 17:45:01
Eccentricity: 0.0762000
inclination: 63.3500°
perigee height: 535 km
apogee height: 1675 km
right ascension of ascending node: 148.6107°
argument of perigee: 26.3946°
revolutions per day: 13.41131692
mean anomaly at epoch: 333.6054°
orbit number at epoch: 0

The dashed part of the orbit path shows where the satellite is in the earth's shadow,  

DLR